Погода в Масаке

Уганда     0°20′35″N   31°44′11″E
темп.,
°C
ветер,
м/с
пор.,
м/с
влажн.,
%
обл.,
%
осадки,
мм/ч
давл.,
гПа
погр.,
м
10 августа, ср
ср1000:00+19сз2261100 0.0 101414
03:00+18зсз226070 0.0 101317
06:00+17зсз225831 0.0 101312
09:00+24з113680 0.0 1014283
12:00+29ююв7530100 0.0 10122349
15:00+28юв8634100 0.0 10091551
18:00+25юв6841100 0.0 1010762
21:00+20вюв23708 0.0 101262
11 августа, чт
чт1100:00+20юв116333 0.0 101211
03:00+18сз2267100 0.0 101133
06:00+18ссз2265100 0.0 101216
09:00+23вюв1145100 0.0 1014283
12:00+29ююв6629100 0.0 10112474
15:00+29ююв8634100 0.0 10092115
18:00+24юв6852100 0.0 1010676
21:00+20вюв237682 0.0 101249
12 августа, пт
пт1200:00+20сз116395 0.0 101111
03:00+18зсз2272100 0.0 101017
06:00+17ссв1180100 0.0 101315
09:00+23ссв225160 0.0 1014399
12:00+29юв5534100 0.0 10112607
15:00+26юв7744100 0.0 10101262
18:00+23юв4659100 0.0 1011571
21:00+21в246654 0.0 1012131
13 августа, сб
сб1300:00+19ссв117047 0.0 101211
03:00+20зсз236725 0.0 101181
06:00+19ссз2269100 0.0 101236
09:00+22ссв225870 0.0 1014267
12:00+30юв232993 0.0 10112675
15:00+26юв7642100 0.0 1009883
18:00+23юв4761100 0.0 1010457
21:00+22ссв116783 0.0 101223
14 августа, вс
вс1400:00+20ссз227444 0.0 101225
03:00+19сз377045 0.0 1011166
06:00+18ссз238377 0.0 101248
09:00+23ссз456058 0.0 1013592
12:00+30ссз3333100 0.0 10112360
15:00+25вюв5549100 0.2 1009745
18:00+24в4653100 0.3 1009415
21:00+21с5875100 0.4 1012333